Stevens Point, WI

5:55 AM CDT on October 15, 2019 (GMT -0500)
Stevens Point Municipal

Weather History for KSTE - August, 2019

Change the Weather History Date:

Wednesday, August 14, 2019

  Actual Average Record
Temperature  
Mean Temperature 63 °F -  
Max Temperature 72 °F 79 °F 90 °F (1952)
Min Temperature 54 °F 58 °F 36 °F (2013)
Degree Days  
Heating Degree Days 2    
Growing Degree Days 13 (Base 50)    
Moisture  
Dew Point 53 °F    
Average Humidity 71    
Maximum Humidity 100    
Minimum Humidity 46    
Precipitation  
Precipitation 0.00 in - - ()
Sea Level Pressure  
Sea Level Pressure 30.03 in    
Wind  
Wind Speed 6 mph (ENE)    
Max Wind Speed 14 mph    
Max Gust Speed 18 mph    
Visibility 10 miles    
Events Rain    
Averages and records for this station are not official NWS values.
T = Trace of Precipitation, MM = Missing Value Source: NWS Daily Summary

Daily Weather History Graph

Daily Weather History Graph

Search for Another Location

Airport or City:

Astronomy

Aug. 14, 2019 Rise Set
Actual Time 5:59 AM CDT 8:05 PM CDT
Civil Twilight 5:27 AM CDT 8:37 PM CDT
Nautical Twilight 4:48 AM CDT 9:16 PM CDT
Astronomical Twilight 4:05 AM CDT 9:59 PM CDT
Moon 8:02 PM CDT (8/14) 4:52 AM CDT (8/14)
Length of Visible Light 15h 09m
Length of Day
14h 05m
Waxing Gibbous, 99% of the Moon is Illuminated
Aug 14
Waxing Gibbous
Aug 15
Full
Aug 23
Last Quarter
Aug 30
New
Sep 5
First Quarter

Hourly Weather History & Observations

Time (CDT) Temp. Dew Point Humidity Pressure Visibility Wind Dir Wind Speed Gust Speed Precip Events Conditions
12:15 AM 59.0 °F 54.7 °F 86% 29.99 in 10.0 mi ENE 6.9 mph - N/A   Overcast
12:35 AM 59.0 °F 54.5 °F 85% 29.99 in 10.0 mi ENE 6.9 mph - N/A   Overcast
12:55 AM 59.2 °F 54.0 °F 83% 29.99 in 10.0 mi East 4.6 mph - N/A   Overcast
1:15 AM 59.4 °F 54.0 °F 82% 30.00 in 10.0 mi ENE 5.8 mph - N/A   Overcast
1:35 AM 59.0 °F 54.1 °F 84% 29.99 in 10.0 mi ENE 4.6 mph - N/A   Overcast
1:55 AM 59.0 °F 54.7 °F 86% 29.98 in 10.0 mi ENE 6.9 mph - N/A   Overcast
2:15 AM 58.6 °F 54.7 °F 87% 29.99 in 10.0 mi NE 4.6 mph - N/A   Overcast
2:35 AM 58.6 °F 54.7 °F 87% 29.99 in 10.0 mi NE 5.8 mph - N/A   Overcast
2:55 AM 58.6 °F 54.5 °F 86% 30.00 in 10.0 mi ENE 4.6 mph - N/A   Overcast
3:15 AM 58.8 °F 54.7 °F 86% 29.99 in 10.0 mi NE 6.9 mph - N/A   Overcast
3:35 AM 58.5 °F 55.2 °F 89% 29.99 in 10.0 mi ENE 5.8 mph - N/A Rain Light Rain
3:55 AM 58.1 °F 55.6 °F 91% 30.00 in 10.0 mi East 4.6 mph - N/A   Overcast
4:15 AM 58.1 °F 55.4 °F 91% 30.00 in 10.0 mi ENE 6.9 mph - N/A   Overcast
4:35 AM 57.7 °F 55.0 °F 91% 30.00 in 10.0 mi ENE 6.9 mph - N/A Rain Rain
4:55 AM 57.4 °F 55.0 °F 92% 30.00 in 10.0 mi NE 6.9 mph - N/A   Light Drizzle
5:35 AM 56.8 °F 54.5 °F 92% 30.01 in 10.0 mi NE 3.5 mph - N/A Rain Light Rain
5:55 AM 56.8 °F 53.8 °F 89% 30.02 in 10.0 mi Calm Calm - N/A   Light Drizzle
6:15 AM 57.2 °F 53.8 °F 88% 30.03 in 10.0 mi Calm Calm - N/A   Light Drizzle
6:35 AM 57.0 °F 54.0 °F 89% 30.03 in 10.0 mi Calm Calm - N/A   Overcast
6:55 AM 57.2 °F 53.6 °F 88% 30.03 in 10.0 mi NE 4.6 mph - N/A   Overcast
7:15 AM 57.4 °F 53.1 °F 85% 30.03 in 10.0 mi NE 6.9 mph - N/A   Overcast
7:35 AM 58.1 °F 51.6 °F 79% 30.03 in 10.0 mi NE 9.2 mph - N/A   Overcast
7:55 AM 58.3 °F 51.3 °F 77% 30.02 in 10.0 mi NE 8.1 mph - N/A   Mostly Cloudy
8:15 AM 59.9 °F 50.9 °F 72% 30.02 in 10.0 mi NE 12.7 mph 17.3 mph N/A   Mostly Cloudy
8:35 AM 60.8 °F 51.3 °F 71% 30.02 in 10.0 mi NE 13.8 mph - N/A   Overcast
8:55 AM 61.5 °F 51.1 °F 69% 30.03 in 10.0 mi NNE 10.4 mph - N/A   Mostly Cloudy
9:15 AM 62.2 °F 50.9 °F 66% 30.03 in 10.0 mi ENE 9.2 mph - N/A   Overcast
9:35 AM 64.0 °F 50.5 °F 61% 30.03 in 10.0 mi East 9.2 mph - N/A   Overcast
9:55 AM 64.8 °F 50.4 °F 60% 30.04 in 10.0 mi ENE 8.1 mph - N/A   Overcast
10:15 AM 64.9 °F 50.0 °F 58% 30.04 in 10.0 mi NE 10.4 mph - N/A   Overcast
10:35 AM 65.3 °F 50.4 °F 58% 30.05 in 10.0 mi ENE 8.1 mph - N/A   Overcast
10:55 AM 65.5 °F 50.2 °F 58% 30.05 in 10.0 mi ENE 9.2 mph - N/A   Overcast
11:15 AM 66.2 °F 50.0 °F 56% 30.05 in 10.0 mi NE 9.2 mph - N/A   Overcast
11:35 AM 66.9 °F 49.8 °F 54% 30.04 in 10.0 mi ENE 9.2 mph - N/A   Overcast
11:55 AM 69.4 °F 50.2 °F 50% 30.04 in 10.0 mi ENE 10.4 mph - N/A   Overcast
12:15 PM 69.3 °F 48.6 °F 48% 30.04 in 10.0 mi ENE 12.7 mph 17.3 mph N/A   Scattered Clouds
12:35 PM 69.3 °F 48.7 °F 48% 30.05 in 10.0 mi East 12.7 mph 18.4 mph N/A   Clear
12:55 PM 68.9 °F 48.9 °F 49% 30.05 in 10.0 mi East 11.5 mph - N/A   Mostly Cloudy
1:15 PM 70.3 °F 49.5 °F 47% 30.05 in 10.0 mi ENE 8.1 mph - N/A   Overcast
1:35 PM 69.6 °F 48.9 °F 48% 30.05 in 10.0 mi East 9.2 mph 17.3 mph N/A   Overcast
1:55 PM 70.0 °F 48.7 °F 47% 30.05 in 10.0 mi ENE 8.1 mph - N/A   Overcast
2:15 PM 69.6 °F 48.9 °F 48% 30.06 in 10.0 mi ENE 8.1 mph - N/A   Overcast
2:35 PM 70.2 °F 49.5 °F 48% 30.05 in 10.0 mi East 9.2 mph - N/A   Overcast
2:55 PM 72.0 °F 50.4 °F 46% 30.05 in 10.0 mi ENE 5.8 mph - N/A   Overcast
3:15 PM 70.0 °F 49.8 °F 49% 30.05 in 10.0 mi NE 6.9 mph - N/A   Overcast
3:35 PM 70.5 °F 49.8 °F 48% 30.05 in 10.0 mi ENE 6.9 mph - N/A   Overcast
3:55 PM 70.3 °F 49.6 °F 48% 30.04 in 10.0 mi ENE 3.5 mph - N/A   Overcast
4:15 PM 69.8 °F 50.4 °F 50% 30.04 in 10.0 mi ENE 8.1 mph - N/A   Overcast
4:35 PM 69.6 °F 50.7 °F 51% 30.04 in 10.0 mi East 3.5 mph - N/A   Overcast
4:55 PM 70.7 °F 50.9 °F 49% 30.03 in 10.0 mi ENE 5.8 mph - N/A   Overcast
5:15 PM 69.8 °F 51.3 °F 52% 30.03 in 10.0 mi East 4.6 mph - N/A   Mostly Cloudy
5:35 PM 69.6 °F 51.3 °F 52% 30.03 in 10.0 mi NE 3.5 mph - N/A   Mostly Cloudy
5:55 PM 69.8 °F 51.4 °F 52% 30.03 in 10.0 mi NNE 3.5 mph - N/A   Overcast
6:15 PM 69.1 °F 51.6 °F 54% 30.03 in 10.0 mi East 3.5 mph - N/A   Overcast
6:35 PM 68.5 °F 52.3 °F 56% 30.03 in 10.0 mi East 4.6 mph - N/A   Overcast
6:55 PM 68.4 °F 53.1 °F 58% 30.03 in 10.0 mi East 3.5 mph - N/A   Overcast
7:15 PM 68.0 °F 53.2 °F 59% 30.03 in 10.0 mi ENE 3.5 mph - N/A   Overcast
7:35 PM 67.1 °F 54.1 °F 63% 30.03 in 10.0 mi East 3.5 mph - N/A   Overcast
7:55 PM 65.8 °F 55.4 °F 69% 30.04 in 10.0 mi East 3.5 mph - N/A   Overcast
8:15 PM 65.3 °F 55.6 °F 71% 30.04 in 10.0 mi Calm Calm - N/A   Overcast
8:35 PM 64.8 °F 55.6 °F 72% 30.04 in 10.0 mi Calm Calm - N/A   Overcast
8:55 PM 63.9 °F 55.6 °F 74% 30.05 in 10.0 mi Calm Calm - N/A   Mostly Cloudy
9:15 PM 60.8 °F 56.5 °F 86% 30.06 in 10.0 mi Calm Calm - N/A   Scattered Clouds
9:35 PM 61.3 °F 56.3 °F 83% 30.06 in 10.0 mi Calm Calm - N/A   Scattered Clouds
9:55 PM 58.6 °F 56.7 °F 93% 30.07 in 10.0 mi Calm Calm - N/A   Scattered Clouds
10:15 PM 59.0 °F 56.7 °F 92% 30.07 in 10.0 mi Calm Calm - N/A   Mostly Cloudy
10:35 PM 57.9 °F 56.3 °F 94% 30.07 in 10.0 mi Calm Calm - N/A   Mostly Cloudy
10:55 PM 57.7 °F 57.2 °F 98% 30.08 in 10.0 mi Calm Calm - N/A   Scattered Clouds
11:15 PM 56.3 °F 56.3 °F 100% 30.08 in 10.0 mi Calm Calm - N/A   Clear
11:35 PM 54.7 °F 54.7 °F 100% 30.07 in 10.0 mi Calm Calm - N/A   Clear
11:55 PM 54.9 °F 54.9 °F 100% 30.07 in 10.0 mi Calm Calm - N/A   Clear